FW1757 Weather Reports


time (UTC)temp
C
wind
direction
speed
KPH
gust
KPH
rain 1hr
cm
rain 24hr
cm
rain mn
cm
humidity
%
barometer
mb
20260505224556 21 294 0.0 0.0 0.00 0.00 0.00 56 1010.3
20260505224055 22 281 0.0 0.0 0.00 0.00 0.00 56 1010.4
20260505223555 21 259 0.0 0.0 0.00 0.00 0.00 56 1010.3
20260505223057 22 284 0.0 0.0 0.00 0.00 0.00 56 1010.4
20260505222555 22 284 0.0 0.0 0.00 0.00 0.00 56 1010.4
20260505222055 22 310 0.0 0.0 0.00 0.00 0.00 56 1010.4
20260505221555 22 273 0.0 0.0 0.00 0.00 0.00 56 1010.5
20260505221053 22 300 0.0 0.0 0.00 0.00 0.00 56 1010.5
20260505220557 22 298 0.0 0.0 0.00 0.00 0.00 55 1010.4
20260505220052 21 257 0.0 0.0 0.00 0.00 0.00 57 1010.5
20260505215551 21 284 0.0 0.0 0.00 0.00 0.00 56 1010.5
20260505215051 21 259 0.0 0.0 0.00 0.00 0.00 58 1010.6
20260505214555 21 260 0.0 0.0 0.00 0.00 0.00 57 1010.7
20260505214051 21 278 0.0 0.0 0.00 0.00 0.00 57 1010.8
20260505213550 21 292 0.0 0.0 0.00 0.00 0.00 56 1010.8
20260505213052 21 271 0.0 0.0 0.00 0.00 0.00 58 1010.8
20260505212550 21 292 0.0 0.0 0.00 0.00 0.00 56 1010.9
20260505212049 21 279 0.0 0.0 0.00 0.00 0.00 58 1010.9
20260505211556 21 298 0.0 0.0 0.00 0.00 0.00 58 1010.8
20260505211051 21 274 0.0 0.0 0.00 0.00 0.00 57 1010.9
20260505210547 21 293 0.0 0.0 0.00 0.00 0.00 58 1010.9
20260505210047 21 304 0.0 0.0 0.00 0.00 0.00 57 1011.0
20260505205546 21 295 0.0 0.0 0.00 0.00 0.00 58 1011.0
20260505205049 21 242 0.0 0.0 0.00 0.00 0.00 58 1011.0
20260505204547 21 270 0.0 0.0 0.00 0.00 0.00 60 1011.0
20260505204044 20 275 0.0 0.0 0.00 0.00 0.00 59 1011.1
20260505203548 20 294 0.0 0.0 0.00 0.00 0.00 58 1011.0
20260505203047 20 284 0.0 0.0 0.00 0.00 0.00 57 1011.0
20260505202546 20 282 0.0 0.0 0.00 0.00 0.00 58 1011.1
20260505202047 20 279 0.0 0.0 0.00 0.00 0.00 58 1011.1
20260505201545 20 290 0.0 0.0 0.00 0.00 0.00 58 1011.1
20260505201043 20 283 0.0 0.0 0.00 0.00 0.00 59 1011.2
20260505200543 20 296 0.0 0.0 0.00 0.00 0.00 58 1011.3
20260505200047 20 296 0.0 0.0 0.00 0.00 0.00 57 1011.3
20260505195541 20 315 0.0 0.0 0.00 0.00 0.00 59 1011.3
20260505195040 20 241 0.0 0.0 0.00 0.00 0.00 56 1011.3
20260505194540 20 284 0.0 0.0 0.00 0.00 0.00 59 1011.3
20260505194038 20 245 0.0 0.0 0.00 0.00 0.00 58 1011.4
20260505193538 20 254 0.0 0.0 0.00 0.00 0.00 59 1011.5
20260505193036 20 288 0.0 0.0 0.00 0.00 0.00 60 1011.5
20260505192535 19 265 0.0 0.0 0.00 0.00 0.00 60 1011.5
20260505192034 19 274 0.0 0.0 0.00 0.00 0.00 61 1011.7
20260505191533 19 318 0.0 0.0 0.00 0.00 0.00 60 1011.6
20260505191035 19 304 0.0 0.0 0.00 0.00 0.00 60 1011.6
20260505190532 19 306 0.0 0.0 0.00 0.00 0.00 61 1011.7
20260505190037 19 288 0.0 0.0 0.00 0.00 0.00 61 1011.7
20260505185532 18 281 0.0 0.0 0.00 0.00 0.00 61 1011.7
20260505185032 19 321 0.0 0.0 0.00 0.00 0.00 60 1011.7
20260505184530 18 299 0.0 0.0 0.00 0.00 0.00 62 1011.8
20260505184030 18 254 0.0 0.0 0.00 0.00 0.00 60 1011.9
20260505183530 18 306 0.0 0.0 0.00 0.00 0.00 63 1011.9
20260505183032 18 284 0.0 0.0 0.00 0.00 0.00 62 1011.9
20260505182529 18 303 0.0 0.0 0.00 0.00 0.00 61 1012.0
20260505182029 18 278 0.0 0.0 0.00 0.00 0.00 63 1011.9
20260505181529 18 304 0.0 0.0 0.00 0.00 0.00 62 1011.9
20260505181028 18 252 0.0 0.0 0.00 0.00 0.00 62 1011.9
20260505180525 18 247 0.0 0.0 0.00 0.00 0.00 63 1011.9
20260505180025 18 310 0.0 0.0 0.00 0.00 0.00 63 1012.0
20260505175525 18 296 0.0 0.0 0.00 0.00 0.00 61 1012.0
20260505175024 17 299 0.0 0.0 0.00 0.00 0.00 63 1012.0
20260505174524 17 279 0.0 0.0 0.00 0.00 0.00 64 1011.9
20260505174026 17 284 0.0 0.0 0.00 0.00 0.00 64 1011.9
20260505173523 17 280 0.0 0.0 0.00 0.00 0.00 64 1012.0
20260505173022 17 254 0.0 0.0 0.00 0.00 0.00 65 1012.2
20260505172521 17 277 0.0 0.0 0.00 0.00 0.00 65 1012.0
20260505172023 17 284 0.0 0.0 0.00 0.00 0.00 65 1012.0
20260505171524 17 263 0.0 0.0 0.00 0.00 0.00 65 1012.0
20260505171021 17 317 0.0 0.0 0.00 0.00 0.00 65 1012.0
20260505170521 16 276 0.0 0.0 0.00 0.00 0.00 66 1011.9
20260505170020 16 302 0.0 0.0 0.00 0.00 0.00 67 1011.9
20260505165521 16 284 0.0 0.0 0.00 0.00 0.00 66 1011.8
20260505165020 16 259 0.0 0.0 0.00 0.00 0.00 67 1012.0
20260505164519 16 267 0.0 0.0 0.00 0.00 0.00 67 1011.9
20260505164023 16 268 0.0 0.0 0.00 0.00 0.00 67 1011.8
20260505163517 16 276 0.0 0.0 0.00 0.00 0.00 67 1011.8
20260505163017 16 252 0.0 0.0 0.00 0.00 0.00 67 1011.8
20260505162517 16 221 0.0 0.0 0.00 0.00 0.00 67 1011.9
20260505162017 16 279 0.0 0.0 0.00 0.00 0.00 67 1011.8
20260505161517 15 267 0.0 0.0 0.00 0.00 0.00 67 1011.8
20260505161019 15 250 0.0 0.0 0.00 0.00 0.00 67 1011.9
20260505160519 15 253 0.0 0.0 0.00 0.00 0.00 67 1011.9
20260505153014 15 300 0.0 0.0 0.00 0.00 0.00 65 1011.7
20260505152513 15 247 0.0 0.0 0.00 0.00 0.00 65 1011.6
20260505152017 15 284 0.0 0.0 0.00 0.00 0.00 64 1011.5
20260505151511 15 214 0.0 0.0 0.00 0.00 0.00 64 1011.5
20260505151011 14 298 0.0 0.0 0.00 0.00 0.00 64 1011.5
20260505150511 14 267 0.0 0.0 0.00 0.00 0.00 63 1011.5
20260505140506 13 287 0.0 0.0 0.00 0.00 0.00 59 1010.9
20260505124607 13 300 0.0 0.0 0.00 0.00 0.00 60 1010.0
20260505124058 14 273 0.0 0.0 0.00 0.00 0.00 60 1010.0
20260505123557 14 194 0.0 0.0 0.00 0.00 0.00 61 1009.9
20260505123058 14 285 0.0 0.0 0.00 0.00 0.00 61 1009.9
20260505122556 14 240 0.0 0.0 0.00 0.00 0.00 61 1009.8
20260505122055 14 269 0.0 0.0 0.00 0.00 0.00 62 1009.8
20260505121555 14 285 0.0 0.0 0.00 0.00 0.00 62 1009.8
20260505121058 14 294 0.0 0.0 0.00 0.00 0.00 62 1009.6
20260505120554 14 292 0.0 0.0 0.00 0.00 0.00 62 1009.6
20260505120108 14 266 0.0 0.0 0.00 0.00 0.00 62 1009.6
20260505115553 14 278 0.0 0.0 0.00 0.00 0.00 62 1009.6
20260505115052 14 280 0.0 0.0 0.00 0.00 0.00 62 1009.6
20260505114552 15 295 0.0 0.0 0.00 0.00 0.00 63 1009.5
20260505114052 15 244 0.0 0.0 0.00 0.00 0.00 63 1009.6
20260505113550 15 288 0.0 0.0 0.00 0.00 0.00 63 1009.7
20260505113054 15 257 0.0 0.0 0.00 0.00 0.00 63 1009.6
20260505112552 15 251 0.0 0.0 0.00 0.00 0.00 63 1009.6
20260505112049 15 246 0.0 0.0 0.00 0.00 0.00 63 1009.5
20260505111549 15 298 0.0 0.0 0.00 0.00 0.00 63 1009.4
20260505111049 15 290 0.0 0.0 0.00 0.00 0.00 63 1009.5
20260505110549 15 269 0.0 0.0 0.00 0.00 0.00 63 1009.4
20260505102043 15 291 0.0 0.0 0.00 0.00 0.00 64 1009.2
20260505101543 15 285 0.0 0.0 0.00 0.00 0.00 64 1009.1
20260505101042 15 282 0.0 0.0 0.00 0.00 0.00 65 1009.2
20260505100542 15 291 0.0 0.0 0.00 0.00 0.00 65 1009.1
20260505100042 16 310 0.0 0.0 0.00 0.00 0.00 65 1009.1
20260505095541 16 277 0.0 0.0 0.00 0.00 0.00 65 1009.1
20260505095039 16 284 0.0 0.0 0.00 0.00 0.00 65 1009.0
20260505094541 16 279 0.0 0.0 0.00 0.00 0.00 65 1009.0
20260505094039 16 279 0.0 0.0 0.00 0.00 0.00 65 1008.9
20260505093538 16 299 0.0 0.0 0.00 0.00 0.00 65 1009.0
20260505093038 16 288 0.0 0.0 0.00 0.00 0.00 65 1009.0
20260505092537 16 261 0.0 0.0 0.00 0.00 0.00 65 1008.9
20260505092037 16 288 0.0 0.0 0.00 0.00 0.00 66 1009.0
20260505091536 16 279 0.0 0.0 0.00 0.00 0.00 66 1009.0
20260505091038 16 250 0.0 0.0 0.00 0.00 0.00 66 1008.9
20260505090534 16 301 0.0 0.0 0.00 0.00 0.00 66 1008.9
20260505090037 16 278 0.0 0.0 0.00 0.00 0.00 66 1008.9
20260505085534 16 272 0.0 0.0 0.00 0.00 0.00 66 1008.7
20260505085033 16 309 0.0 0.0 0.00 0.00 0.00 66 1008.7
20260505084532 17 261 0.0 0.0 0.00 0.00 0.00 66 1008.6
20260505084031 17 267 0.0 0.0 0.00 0.00 0.00 66 1008.7
20260505083531 17 323 0.0 0.0 0.00 0.00 0.00 65 1008.6
20260505083030 17 220 0.0 0.0 0.00 0.00 0.00 65 1008.5
20260505082530 17 259 0.0 0.0 0.00 0.00 0.00 65 1008.6
20260505082030 17 271 0.0 0.0 0.00 0.00 0.00 64 1008.5
20260505081541 17 279 0.0 0.0 0.00 0.00 0.00 64 1008.6
20260505081029 17 284 0.0 0.0 0.00 0.00 0.00 64 1008.6
20260505080528 17 272 0.0 0.0 0.00 0.00 0.00 64 1008.6
20260505080028 17 275 0.0 0.0 0.00 0.00 0.00 64 1008.4
20260505075527 17 280 0.0 0.0 0.00 0.00 0.00 64 1008.5
20260505075029 17 283 0.0 0.0 0.00 0.00 0.00 64 1008.5
20260505074526 17 296 0.0 0.0 0.00 0.00 0.00 64 1008.4
20260505074027 17 277 0.0 0.0 0.00 0.00 0.00 65 1008.3
20260505073527 17 291 0.0 0.0 0.00 0.00 0.00 64 1008.4
20260505073032 17 285 0.0 0.0 0.00 0.00 0.00 64 1008.3
20260505072524 17 285 0.0 0.0 0.00 0.00 0.00 64 1008.4
20260505072023 17 294 0.0 0.0 0.00 0.00 0.00 64 1008.4
20260505071543 17 281 0.0 0.0 0.00 0.00 0.00 65 1008.3
20260505071022 17 290 0.0 0.0 0.00 0.00 0.00 65 1008.3
20260505070522 17 286 0.0 0.0 0.00 0.00 0.00 65 1008.0
20260505070021 17 294 0.0 0.0 0.00 0.00 0.00 65 1008.1
20260505065525 17 261 0.0 0.0 0.00 0.00 0.00 65 1008.1
20260505065020 17 279 0.0 0.0 0.00 0.00 0.00 65 1008.1
20260505064524 17 285 0.0 0.0 0.00 0.00 0.00 65 1007.9
20260505064023 17 285 0.0 0.0 0.00 0.00 0.00 66 1007.9
20260505063519 17 276 0.0 0.0 0.00 0.00 0.00 66 1007.8
20260505063019 17 277 0.0 0.0 0.00 0.00 0.00 66 1007.9
20260505062519 18 269 0.0 0.0 0.00 0.00 0.00 66 1007.9
20260505062019 18 269 0.0 0.0 0.00 0.00 0.00 66 1007.8
20260505061519 18 288 0.0 0.0 0.00 0.00 0.00 66 1007.9
20260505061022 18 234 0.0 0.0 0.00 0.00 0.00 66 1007.8
20260505060518 18 282 0.0 0.0 0.00 0.00 0.00 66 1007.7
20260505060018 18 279 0.0 0.0 0.00 0.00 0.00 66 1007.5
20260505055518 18 279 0.0 0.0 0.00 0.00 0.00 66 1007.6
20260505055018 18 259 0.0 0.0 0.00 0.00 0.00 66 1007.6
20260505054523 18 254 0.0 0.0 0.00 0.00 0.00 66 1007.7
20260505054018 18 266 0.0 0.0 0.00 0.00 0.00 66 1007.6
20260505053517 18 281 0.0 0.0 0.00 0.00 0.00 65 1007.6
20260505053024 18 265 0.0 0.0 0.00 0.00 0.00 65 1007.6
20260505052519 18 216 0.0 0.0 0.00 0.00 0.00 65 1007.6
20260505052017 18 279 0.0 0.0 0.00 0.00 0.00 65 1007.6
20260505051531 18 270 0.0 0.0 0.00 0.00 0.00 65 1007.6
20260505051017 18 249 0.0 0.0 0.00 0.00 0.00 65 1007.5
20260505050520 18 241 0.0 0.0 0.00 0.00 0.00 65 1007.4
20260505041517 19 319 0.0 0.0 0.00 0.00 0.00 62 1007.0
20260505041014 19 281 0.0 0.0 0.00 0.00 0.00 61 1006.8
20260505040514 20 278 0.0 0.0 0.00 0.00 0.00 62 1006.8
20260505040021 20 292 0.0 0.0 0.00 0.00 0.00 61 1006.6
20260505035514 20 292 0.0 0.0 0.00 0.00 0.00 61 1006.6
20260505035013 20 276 0.0 0.0 0.00 0.00 0.00 60 1006.6
20260505034512 20 273 0.0 0.0 0.00 0.00 0.00 60 1006.4
20260505034016 20 306 0.0 0.0 0.00 0.00 0.00 59 1006.4
20260505033512 20 300 0.0 0.0 0.00 0.00 0.00 59 1006.4
20260505033012 20 279 0.0 0.0 0.00 0.00 0.00 59 1006.4
20260505032511 20 292 0.0 0.0 0.00 0.00 0.00 58 1006.4
20260505032016 20 294 0.0 0.0 0.00 0.00 0.00 58 1006.4
20260505031511 20 296 0.0 0.0 0.00 0.00 0.00 58 1006.3
20260505031016 21 275 0.0 0.0 0.00 0.00 0.00 57 1006.3
20260505030513 21 297 0.0 0.0 0.00 0.00 0.00 56 1006.2
20260505030022 21 285 0.0 0.0 0.00 0.00 0.00 56 1006.2
20260505025511 21 280 0.0 0.0 0.00 0.00 0.00 55 1006.1
20260505025011 22 300 0.0 0.0 0.00 0.00 0.00 55 1006.0
20260505024511 22 292 0.0 0.0 0.00 0.00 0.00 54 1005.9
20260505024010 22 298 0.0 0.0 0.00 0.00 0.00 54 1005.9
20260505023509 22 304 0.0 0.0 0.00 0.00 0.00 53 1005.8
20260505023009 22 272 0.0 0.0 0.00 0.00 0.00 53 1005.8
20260505022511 22 279 0.0 0.0 0.00 0.00 0.00 52 1005.7
20260505022009 23 292 0.0 0.0 0.00 0.00 0.00 52 1005.7
20260505021510 23 294 0.0 0.0 0.00 0.00 0.00 51 1005.8
20260505021009 23 232 0.0 0.0 0.00 0.00 0.00 52 1005.7
20260505020509 23 302 0.0 0.0 0.00 0.00 0.00 51 1005.7
20260505020009 23 226 0.0 0.0 0.00 0.00 0.00 51 1005.7
20260505015509 23 273 0.0 0.0 0.00 0.00 0.00 51 1005.6
20260505015012 23 298 0.0 0.0 0.00 0.00 0.00 50 1005.7
20260505014508 23 269 0.0 0.0 0.00 0.00 0.00 50 1005.7
20260505014008 23 295 0.0 0.0 0.00 0.00 0.00 50 1005.8
20260505013507 23 279 0.0 0.0 0.00 0.00 0.00 51 1005.6
20260505013008 23 292 0.0 0.0 0.00 0.00 0.00 50 1005.8
20260505012508 23 290 0.0 0.0 0.00 0.00 0.00 50 1005.7
20260505012008 23 299 0.0 0.0 0.00 0.00 0.00 50 1005.6
20260505011510 23 292 0.0 0.0 0.00 0.00 0.00 50 1005.7
20260505011008 24 288 0.0 0.0 0.00 0.00 0.00 49 1005.7
20260505010506 23 284 0.0 0.0 0.00 0.00 0.00 50 1005.6
20260505010006 24 265 0.0 0.0 0.00 0.00 0.00 50 1005.7
20260505005506 24 279 0.0 0.0 0.00 0.00 0.00 49 1005.7
20260505005006 24 282 0.0 0.0 0.00 0.00 0.00 49 1005.7
20260505004508 24 289 0.0 0.0 0.00 0.00 0.00 48 1005.6
20260505004005 25 309 0.0 0.0 0.00 0.00 0.00 48 1005.8
20260505003508 25 315 0.0 0.0 0.00 0.00 0.00 47 1005.7
20260505003005 25 271 0.0 0.0 0.00 0.00 0.00 46 1005.7
20260505002505 25 308 0.0 0.0 0.00 0.00 0.00 47 1005.7
20260505002004 25 270 0.0 0.0 0.00 0.00 0.00 47 1005.7
20260505001505 25 278 0.0 0.0 0.00 0.00 0.00 46 1005.8
20260505001004 25 276 0.0 0.0 0.00 0.00 0.00 46 1005.8
20260505000504 25 285 0.0 0.0 0.00 0.00 0.00 47 1005.8
20260505000004 25 270 0.0 0.0 0.00 0.00 0.00 48 1005.8
20260504235504 25 296 0.0 0.0 0.00 0.00 0.00 47 1005.7
20260504235004 25 290 0.0 0.0 0.00 0.00 0.00 45 1005.7
20260504234506 25 269 0.0 0.0 0.00 0.00 0.00 46 1005.8
20260504234003 25 304 0.0 0.0 0.00 0.00 0.00 46 1005.6
20260504233502 25 264 0.0 0.0 0.00 0.00 0.00 47 1005.8
20260504233002 25 307 0.0 0.0 0.00 0.00 0.00 45 1005.8
20260504232501 25 300 0.0 0.0 0.00 0.00 0.00 45 1005.7
20260504232100 25 220 0.0 0.0 0.00 0.00 0.00 49 1005.8
20260504231600 25 299 0.0 0.0 0.00 0.00 0.00 47 1005.8
20260504231059 25 292 0.0 0.0 0.00 0.00 0.00 48 1005.9
20260504230558 25 247 0.0 0.0 0.00 0.00 0.00 46 1006.1
20260504230057 25 304 0.0 0.0 0.00 0.00 0.00 47 1006.1
20260504225557 25 281 0.0 0.0 0.00 0.00 0.00 48 1006.2
20260504225057 25 271 0.0 0.0 0.00 0.00 0.00 48 1006.3